Location: Unspecified
(29.9680°N, 0.0000°E)
Time: 02:50:52
(UTC+00:00)

S-56A Canister/Altair - All Passes

Search period start: 20 June 2019 00:00
Search period end: 30 June 2019 00:00
Orbit: 633 x 2499 km, 38.9° (Epoch: 18 June)

Date Brightness Start Highest point End Pass type
(mag) Time Alt. Az. Time Alt. Az. Time Alt. Az.
20 Jun - 12:32:27 10° S 12:39:46 17° SE 12:45:51 10° ESE daylight
20 Jun - 14:34:02 10° SW 14:45:12 54° SSE 14:52:35 10° ENE daylight
20 Jun - 16:40:53 10° WSW 16:50:01 61° NNW 16:56:01 10° ENE daylight
20 Jun - 18:48:55 10° WNW 18:54:53 33° N 18:59:24 10° ENE daylight
20 Jun - 20:54:35 10° WNW 20:59:33 52° NNE 21:03:52 10° E visible
20 Jun - 22:59:11 10° W 23:03:00 28° SW 23:07:03 10° SSE visible
21 Jun - 12:00:00 10° S 12:06:36 15° SE 12:12:17 10° ESE daylight
21 Jun - 14:00:35 10° SW 14:12:09 49° SSE 14:20:01 10° ENE daylight
21 Jun - 16:07:09 10° WSW 16:17:11 69° NNW 16:23:39 10° ENE daylight
21 Jun - 18:15:28 10° WNW 18:22:08 36° N 18:26:58 10° ENE daylight
21 Jun - 20:21:43 10° WNW 20:26:57 47° NNE 20:31:17 10° E visible
21 Jun - 22:26:23 10° WNW 22:30:32 35° SW 22:34:41 10° SSE visible
22 Jun - 11:27:55 10° SSE 11:33:24 13° SE 11:38:17 10° ESE daylight
22 Jun - 13:27:09 10° SSW 13:39:03 45° SE 13:47:21 10° ENE daylight
22 Jun - 15:33:22 10° WSW 15:44:16 76° NNW 15:51:15 10° ENE daylight
22 Jun - 17:41:53 10° WNW 17:49:19 39° N 17:54:34 10° ENE daylight
22 Jun - 19:48:43 10° WNW 19:54:20 44° NNE 19:58:44 10° E visible
22 Jun - 21:53:35 10° WNW 21:58:05 44° SW 22:02:18 10° SE visible
23 Jun - 10:56:37 10° SSE 11:00:09 11° SE 11:03:28 10° ESE daylight
23 Jun - 12:53:47 10° SSW 13:05:53 41° SE 13:14:36 10° ENE daylight
23 Jun - 14:59:34 10° WSW 15:11:17 84° NNW 15:18:49 10° ENE daylight
23 Jun - 17:08:09 10° W 17:16:29 43° NNW 17:22:10 10° ENE daylight
23 Jun - 19:15:35 10° WNW 19:21:39 42° N 19:26:13 10° E daylight
23 Jun - 21:20:44 10° WNW 21:25:37 55° SSW 21:29:56 10° SE visible
24 Jun - 12:20:30 10° SSW 12:32:40 37° SE 12:41:45 10° E daylight
24 Jun - 14:25:46 10° WSW 14:38:14 89° SSE 14:46:20 10° ENE daylight
24 Jun - 16:34:21 10° W 16:43:35 47° NNW 16:49:46 10° ENE daylight
24 Jun - 18:42:18 10° WNW 18:48:55 41° N 18:53:43 10° E daylight
24 Jun - 20:47:49 10° WNW 20:53:09 69° SSW 20:57:33 10° SE visible
25 Jun - 11:47:18 10° SSW 11:59:23 34° SE 12:08:46 10° E daylight
25 Jun - 13:52:00 10° SW 14:05:06 82° SSE 14:13:48 10° ENE daylight
25 Jun - 16:00:28 10° W 16:10:38 51° NNW 16:17:20 10° ENE daylight
25 Jun - 18:08:54 10° WNW 18:16:08 41° N 18:21:14 10° ENE daylight
25 Jun - 20:14:50 10° WNW 20:20:38 83° SSW 20:25:10 10° ESE visible
25 Jun - 22:22:08 10° WSW 22:23:35 11° SW 22:24:59 10° SSW visible
26 Jun - 11:14:15 10° SSW 11:26:05 31° SE 11:35:39 10° E daylight
26 Jun - 13:18:16 10° SW 13:31:54 76° SSE 13:41:12 10° ENE daylight
26 Jun - 15:26:30 10° W 15:37:36 56° NNW 15:44:53 10° ENE daylight
26 Jun - 17:35:20 10° WNW 17:43:18 42° N 17:48:46 10° ENE daylight
26 Jun - 19:41:45 10° WNW 19:48:06 84° NNE 19:52:47 10° ESE visible
26 Jun - 21:48:19 10° W 21:51:06 15° SW 21:53:43 10° S visible
27 Jun - 10:41:20 10° S 10:52:45 28° SE 11:02:22 10° E daylight
27 Jun - 12:44:35 10° SW 12:58:38 70° SSE 13:08:31 10° ENE daylight
27 Jun - 14:52:31 10° W 15:04:31 61° NNW 15:12:24 10° ENE daylight
27 Jun - 17:01:39 10° WNW 17:10:23 43° N 17:16:18 10° ENE daylight
27 Jun - 19:08:34 10° WNW 19:15:28 74° NNE 19:20:23 10° ESE daylight
27 Jun - 21:14:53 10° W 21:18:39 20° SW 21:22:00 10° S visible
28 Jun - 10:08:36 10° S 10:19:24 24° SE 10:28:52 10° E daylight
28 Jun - 12:10:59 10° SW 12:25:18 64° SSE 12:35:46 10° ENE daylight
28 Jun - 14:18:30 10° WSW 14:31:20 66° NNW 14:39:53 10° ENE daylight
28 Jun - 16:27:51 10° WNW 16:37:25 45° N 16:43:48 10° ENE daylight
28 Jun - 18:35:17 10° WNW 18:42:48 66° NNE 18:47:58 10° ESE daylight
28 Jun - 20:41:34 10° W 20:46:14 26° SW 20:50:05 10° SSE visible
29 Jun - 09:36:05 10° S 09:46:03 21° SE 09:55:07 10° E daylight
29 Jun - 11:37:29 10° SW 11:51:55 59° SE 12:02:55 10° ENE daylight
29 Jun - 13:44:31 10° WSW 13:58:06 71° NNW 14:07:18 10° ENE daylight
29 Jun - 15:53:56 10° WNW 16:04:22 47° N 16:11:18 10° ENE daylight
29 Jun - 18:01:52 10° WNW 18:10:02 61° NNE 18:15:31 10° E daylight
29 Jun - 20:08:16 10° WNW 20:13:47 34° SW 20:18:05 10° SSE visible
